[[{"header":{"parameterUnit":"m.s-1","parameterCategory":1,"la1":30.2992,"la2":30.254,"lo1":-89.0895,"lo2":-89.0443,"dy":0.0025,"dx":0.0025,"nx":19,"ny":19,"refTime":"2026-03-24T21:00:00:Z","depth":0,"parameterNumber":2,"parameterNumberName":"U-component_of_WINDS"},"data":[0,0,0,-3.166,-3.1665,-3.1926,-3.1927,-3.2248,-3.2251,0,0,0,0,0,0,0,0,0,0,0,-3.1572,-3.1574,-3.1659,-3.1666,-3.1926,-3.1927,-3.2248,-3.2251,0,0,0,0,0,0,0,0,0,0,0,-3.1572,-3.1574,-3.1576,-3.1666,-3.1926,-3.1927,-3.2247,-3.2055,0,0,0,0,0,0,0,0,0,0,-3.1804,-3.1713,-3.1573,-3.1576,-3.1668,-3.1926,-3.1928,-3.2046,-3.2067,-3.2124,0,-3.217,0,-3.2215,-3.2272,-3.2273,0,0,0,-3.1673,-3.1696,-3.1775,-3.1576,-3.167,-3.1925,-3.1811,-3.2058,-3.2082,-3.2152,-3.2175,-3.2187,-3.2221,-3.2274,-3.2275,-3.2571,-3.2572,0,0,-3.1659,-3.1614,-3.1759,-3.179,-3.1746,-3.1802,-3.1819,-3.2073,-3.2095,-3.2176,-3.2195,-3.2226,-3.2276,-3.2278,-3.257,-3.2572,0,0,0,-3.1612,-3.1604,-3.1677,-3.1776,-3.1824,-3.181,-3.1829,-3.2084,-3.2112,-3.2198,-3.223,-3.2277,-3.2281,-3.2569,-3.2571,-3.2575,0,0,0,-3.1604,-3.1577,-3.1671,-3.1646,-3.1819,-3.1957,-3.1834,-3.2094,-3.2124,-3.2228,-3.2277,-3.2284,-3.2568,-3.257,-3.2573,-3.2584,0,0,0,-3.1559,-3.1572,-3.1606,-3.1643,-3.1753,-3.1954,-3.1996,-3.2102,-3.2143,-3.2273,-3.2285,-3.2568,-3.257,-3.2571,-3.2581,-3.2648,0,0,0,-3.1498,-3.1607,-3.1605,-3.174,-3.1751,-3.1955,-3.1995,-3.215,-3.2262,-3.2279,-3.2568,-3.2571,-3.257,-3.2579,-3.2645,-3.2694,-3.2711,0,0,-3.1611,-3.1619,-3.1702,-3.1708,-3.19,-3.1919,-3.2113,-3.2259,-3.2314,-3.2483,-3.2491,-3.2574,-3.2581,-3.2647,-3.2825,-3.2837,0,0,0,-3.1723,-3.1781,-3.1842,-3.1945,-3.2059,-3.2157,-3.2278,-3.2333,-3.2479,-3.2391,-3.2619,-3.2624,-3.2665,-3.2691,-3.2702,-3.2739,-3.2581,-3.2581,-3.2581,-3.1816,-3.1879,-3.202,-3.2115,-3.2216,-3.234,-3.2428,-3.2523,-3.2558,-3.2611,-3.2661,-3.276,-3.2788,-3.2797,-3.2835,-3.2694,-3.2694,-3.2694,-3.2694,-3.1984,-3.2077,-3.2122,-3.2274,-3.2342,-3.2472,-3.2597,-3.2618,-3.275,-3.2728,-3.2768,-3.2735,-3.2809,-3.2846,-3.2695,-3.2695,-3.2695,-3.2695,-3.2695,-3.205,-3.2105,-3.2169,-3.2326,-3.2442,-3.2536,-3.266,-3.2719,-3.2775,-3.2814,-3.2872,-3.2872,-3.2878,-3.2838,-3.2839,-3.2839,-3.2839,-3.2839,-3.284,-3.2091,-3.2164,-3.226,-3.2391,-3.2465,-3.2572,-3.27,-3.2776,-3.2876,-3.2909,-3.2909,-3.2939,-3.2805,-3.2768,-3.2845,-3.2844,-3.2844,-3.2843,-3.2843,-3.2233,-3.2211,-3.2359,-3.2434,-3.2593,-3.2703,-3.2778,-3.2928,-3.3001,-3.306,-3.3084,-3.2976,-3.2989,-3.298,-3.295,-3.307,-3.307,-3.307,-3.307,-3.2286,-3.2299,-3.2464,-3.258,-3.2701,-3.2783,-3.2951,-3.3054,-3.3156,-3.3205,-3.3198,-3.3164,-3.3153,-3.3173,-3.3161,-3.3133,-3.3297,-3.3297,-3.3297,-3.2376,-3.2404,-3.2533,-3.2632,-3.2762,-3.2872,-3.3032,-3.3166,-3.3279,-3.3307,-3.3245,-3.3235,-3.3182,-3.3162,-3.3184,-3.3164,-3.3115,0,0]},{"header":{"parameterUnit":"m.s-1","parameterCategory":1,"la1":30.2992,"la2":30.254,"lo1":-89.0895,"lo2":-89.0443,"dy":0.0025,"dx":0.0025,"nx":19,"ny":19,"refTime":"2026-03-24T21:00:00:Z","depth":0,"parameterNumber":3,"parameterNumberName":"V-component_of_WINDS"},"data":[0,0,0,1.9393,1.9394,1.9461,1.9461,1.9541,1.9542,0,0,0,0,0,0,0,0,0,0,0,1.9372,1.9372,1.9393,1.9395,1.9461,1.9461,1.9541,1.9542,0,0,0,0,0,0,0,0,0,0,0,1.9372,1.9372,1.9373,1.9395,1.9461,1.9461,1.9541,1.9492,0,0,0,0,0,0,0,0,0,0,1.9428,1.9407,1.9372,1.9373,1.9395,1.9461,1.9461,1.949,1.9495,1.9509,0,1.9523,0,1.9534,1.9547,1.9547,0,0,0,1.9395,1.9403,1.9423,1.9373,1.9396,1.946,1.9431,1.9493,1.9499,1.9516,1.9524,1.9527,1.9535,1.9547,1.9548,1.9632,1.9632,0,0,1.9392,1.9382,1.9419,1.9427,1.9418,1.9429,1.9433,1.9496,1.9503,1.9524,1.9529,1.9536,1.9548,1.9548,1.9631,1.9632,0,0,0,1.9381,1.938,1.9398,1.9423,1.9436,1.9431,1.9436,1.9501,1.9508,1.953,1.9537,1.9548,1.9549,1.9631,1.9632,1.964,0,0,0,1.9379,1.9373,1.9396,1.9391,1.9434,1.9469,1.9438,1.9503,1.9511,1.9537,1.9548,1.955,1.9631,1.9631,1.9639,1.9645,0,0,0,1.9368,1.9372,1.9381,1.9391,1.9419,1.9468,1.9479,1.9505,1.9515,1.9547,1.955,1.963,1.9631,1.9638,1.9644,1.9665,0,0,0,1.9354,1.9387,1.9381,1.9422,1.9418,1.9474,1.9479,1.952,1.9549,1.9549,1.9631,1.9632,1.9638,1.9643,1.9664,1.968,1.9686,0,0,1.9391,1.9391,1.9416,1.9413,1.9468,1.9465,1.9521,1.9555,1.9566,1.9609,1.9611,1.964,1.9644,1.9664,1.9726,1.9731,0,0,0,1.9424,1.9442,1.9459,1.9487,1.9515,1.954,1.9567,1.958,1.9617,1.9586,1.9654,1.9656,1.9669,1.9677,1.9681,1.9692,1.9635,1.9635,1.9635,1.9461,1.9476,1.9518,1.954,1.9567,1.9596,1.9619,1.9641,1.9646,1.9662,1.9674,1.971,1.9719,1.9722,1.9734,1.9685,1.9685,1.9685,1.9685,1.9516,1.9543,1.9551,1.9595,1.9609,1.9645,1.9675,1.9677,1.9712,1.9702,1.9713,1.9699,1.9727,1.9738,1.9686,1.9686,1.9685,1.9685,1.9685,1.9541,1.9556,1.9573,1.9616,1.9648,1.9669,1.9704,1.9715,1.9726,1.9738,1.9752,1.9752,1.9753,1.9745,1.9745,1.9745,1.9745,1.9745,1.9745,1.9559,1.9578,1.9606,1.9641,1.9662,1.969,1.9721,1.9741,1.9765,1.9771,1.9771,1.9774,1.9728,1.9716,1.9747,1.9747,1.9747,1.9746,1.9746,1.9607,1.9599,1.9642,1.9662,1.9705,1.9735,1.9752,1.9791,1.9809,1.9826,1.9827,1.9792,1.9793,1.979,1.9779,1.9825,1.9825,1.9825,1.9825,1.9626,1.9629,1.9677,1.9709,1.9742,1.9762,1.9809,1.9834,1.9858,1.987,1.9866,1.9854,1.985,1.9853,1.9848,1.9839,1.9899,1.9899,1.9899,1.9656,1.9663,1.9701,1.9727,1.9762,1.9791,1.9836,1.9872,1.9898,1.9902,1.988,1.9877,1.9857,1.9851,1.9852,1.9844,1.9827,0,0]}]]